Weather History for KTBN - October, 2012

Change the Weather History Date:

Friday, October 19, 2012

  Actual Average Record
Temperature  
Mean Temperature 49 °F -  
Max Temperature 51 °F 66 °F 86 °F (2005)
Min Temperature 47 °F 48 °F 32 °F (1996)
Degree Days  
Heating Degree Days 16    
Moisture  
Dew Point 40 °F    
Average Humidity 72    
Maximum Humidity 82    
Minimum Humidity 54    
Precipitation  
Precipitation 0.00 in - - ()
Sea Level Pressure  
Sea Level Pressure 29.72 in    
Wind  
Wind Speed 11 mph (West)    
Max Wind Speed 18 mph    
Max Gust Speed 30 mph    
Visibility 10 miles    
Events      
Averages and records for this station are not official NWS values.
T = Trace of Precipitation, MM = Missing Value Source: NWS Daily Summary

Daily Weather History Graph

Daily Weather History Graph

Search for Another Location

Airport or City:

Trip Planner

Search our weather history database for the weather conditions in past years. The results will help you decide how hot, cold, wet, or windy it might be!

Date:

Astronomy

Oct. 19, 2012 Rise Set
Actual Time 7:21 AM CDT 6:25 PM CDT
Civil Twilight 6:54 AM CDT 6:51 PM CDT
Nautical Twilight 6:24 AM CDT 7:22 PM CDT
Astronomical Twilight 5:53 AM CDT 7:52 PM CDT
Moon 12:00 PM CDT (10/19) 10:07 PM CDT (10/19)
Length of Visible Light 11h 56m
Length of Day
11h 03m
Waxing Crescent, 24% of the Moon is Illuminated
Oct 19
Waxing Crescent
Oct 21
First Quarter
Oct 29
Full
Nov 6
Last Quarter
Nov 13
New

Hourly Weather History & Observations

Time (CDT) Temp. Dew Point Humidity Pressure Visibility Wind Dir Wind Speed Gust Speed Precip Events Conditions
12:55 AM 51.6 °F 35.2 °F 54% 29.62 in 10.0 mi West 12.7 mph 19.6 mph N/A   Mostly Cloudy
1:55 AM 51.3 °F 35.8 °F 55% 29.62 in 10.0 mi West 13.8 mph 25.3 mph N/A   Overcast
2:55 AM 50.7 °F 37.0 °F 59% 29.62 in 10.0 mi West 10.4 mph 25.3 mph N/A   Overcast
3:55 AM 49.6 °F 38.1 °F 65% 29.62 in 10.0 mi WNW 15.0 mph 29.9 mph N/A   Overcast
4:55 AM 48.7 °F 38.5 °F 68% 29.62 in 10.0 mi West 8.1 mph - N/A   Overcast
5:22 AM 48.2 °F 39.2 °F 71% 29.63 in 10.0 mi West 8.1 mph - N/A   Light Drizzle
5:34 AM 48.2 °F 41.0 °F 76% 29.64 in 10.0 mi NW 6.9 mph - N/A   Overcast
5:55 AM 47.7 °F 39.9 °F 75% 29.63 in 10.0 mi West 10.4 mph - 0.00 in   Overcast
6:28 AM 48.2 °F 39.2 °F 71% 29.64 in 10.0 mi WNW 11.5 mph 23.0 mph N/A   Overcast
6:32 AM 48.2 °F 39.2 °F 71% 29.64 in 10.0 mi WNW 9.2 mph 23.0 mph N/A   Overcast
6:36 AM 48.2 °F 39.2 °F 71% 29.64 in 10.0 mi West 9.2 mph - N/A   Overcast
6:44 AM 48.2 °F 39.2 °F 71% 29.64 in 10.0 mi West 11.5 mph 20.7 mph N/A   Overcast
6:55 AM 47.8 °F 40.5 °F 76% 29.64 in 10.0 mi West 10.4 mph - N/A   Overcast
7:55 AM 47.8 °F 40.1 °F 75% 29.65 in 10.0 mi West 10.4 mph - N/A   Overcast
8:27 AM 48.2 °F 39.2 °F 71% 29.66 in 10.0 mi West 15.0 mph 23.0 mph N/A   Light Drizzle
8:37 AM 48.2 °F 39.2 °F 71% 29.67 in 10.0 mi West 12.7 mph 23.0 mph N/A   Overcast
8:55 AM 48.9 °F 39.9 °F 71% 29.67 in 10.0 mi West 10.4 mph - 0.00 in   Overcast
9:18 AM 48.2 °F 39.2 °F 71% 29.68 in 10.0 mi West 12.7 mph - N/A   Light Drizzle
9:20 AM 48.2 °F 39.2 °F 71% 29.68 in 10.0 mi WNW 11.5 mph 18.4 mph N/A   Light Drizzle
9:29 AM 48.2 °F 39.2 °F 71% 29.68 in 10.0 mi West 10.4 mph 19.6 mph N/A   Overcast
9:33 AM 48.2 °F 39.2 °F 71% 29.68 in 10.0 mi West 15.0 mph 21.9 mph N/A   Overcast
9:55 AM 48.9 °F 39.7 °F 71% 29.69 in 10.0 mi West 13.8 mph 20.7 mph 0.00 in   Overcast
9:57 AM 48.2 °F 39.2 °F 71% 29.69 in 10.0 mi West 17.3 mph 23.0 mph N/A   Overcast
10:27 AM 48.2 °F 39.2 °F 71% 29.70 in 10.0 mi West 13.8 mph 21.9 mph N/A   Overcast
10:30 AM 50.0 °F 39.2 °F 66% 29.70 in 10.0 mi WNW 18.4 mph 26.5 mph N/A   Overcast
10:40 AM 50.0 °F 39.2 °F 66% 29.70 in 10.0 mi West 13.8 mph - N/A   Overcast
10:46 AM 50.0 °F 41.0 °F 71% 29.70 in 10.0 mi WNW 16.1 mph 23.0 mph N/A   Overcast
10:55 AM 49.5 °F 40.1 °F 70% 29.71 in 10.0 mi West 15.0 mph 24.2 mph N/A   Overcast
11:11 AM 50.0 °F 41.0 °F 71% 29.72 in 10.0 mi West 16.1 mph 24.2 mph N/A   Light Drizzle
11:21 AM 50.0 °F 41.0 °F 71% 29.73 in 10.0 mi West 16.1 mph 24.2 mph N/A   Overcast
11:55 AM 49.8 °F 40.6 °F 71% 29.74 in 10.0 mi West 17.3 mph 21.9 mph 0.00 in   Overcast
12:55 PM 50.0 °F 41.7 °F 73% 29.76 in 10.0 mi West 12.7 mph - N/A   Overcast
1:03 PM 50.0 °F 42.8 °F 76% 29.76 in 10.0 mi West 11.5 mph 23.0 mph N/A   Light Drizzle
1:12 PM 48.2 °F 42.8 °F 82% 29.76 in 10.0 mi West 12.7 mph 20.7 mph N/A   Overcast
1:55 PM 50.4 °F 43.0 °F 76% 29.76 in 10.0 mi West 15.0 mph 20.7 mph 0.00 in   Overcast
2:10 PM 50.0 °F 42.8 °F 76% 29.76 in 10.0 mi West 10.4 mph 17.3 mph N/A   Overcast
2:26 PM 50.0 °F 42.8 °F 76% 29.76 in 10.0 mi West 11.5 mph 21.9 mph N/A   Overcast
2:37 PM 50.0 °F 42.8 °F 76% 29.77 in 10.0 mi West 11.5 mph 20.7 mph N/A   Light Drizzle
2:48 PM 50.0 °F 42.8 °F 76% 29.78 in 10.0 mi West 12.7 mph 19.6 mph N/A   Overcast
2:55 PM 49.8 °F 41.5 °F 73% 29.78 in 10.0 mi West 11.5 mph - 0.00 in   Overcast
3:55 PM 50.2 °F 41.5 °F 72% 29.78 in 10.0 mi West 11.5 mph 19.6 mph N/A   Overcast
4:55 PM 50.2 °F 41.0 °F 71% 29.80 in 10.0 mi West 8.1 mph - N/A   Overcast
5:55 PM 50.4 °F 41.2 °F 71% 29.81 in 10.0 mi West 6.9 mph - N/A   Overcast
6:55 PM 49.8 °F 41.2 °F 72% 29.82 in 10.0 mi West 8.1 mph - N/A   Overcast
7:04 PM 50.0 °F 41.0 °F 71% 29.82 in 10.0 mi West 8.1 mph - N/A   Overcast
7:55 PM 49.8 °F 41.4 °F 73% 29.83 in 10.0 mi West 8.1 mph - N/A   Overcast
8:55 PM 49.6 °F 41.5 °F 74% 29.83 in 10.0 mi West 5.8 mph - N/A   Overcast
9:05 PM 50.0 °F 41.0 °F 71% 29.83 in 10.0 mi West 4.6 mph - N/A   Overcast
9:18 PM 50.0 °F 41.0 °F 71% 29.83 in 10.0 mi West 4.6 mph - N/A   Overcast
9:47 PM 50.0 °F 41.0 °F 71% 29.84 in 10.0 mi West 5.8 mph - N/A   Overcast
9:55 PM 49.6 °F 41.7 °F 74% 29.84 in 10.0 mi West 4.6 mph - N/A   Overcast
10:13 PM 50.0 °F 42.8 °F 76% 29.83 in 10.0 mi WSW 3.5 mph - N/A   Overcast
10:55 PM 49.1 °F 42.6 °F 78% 29.83 in 10.0 mi WSW 3.5 mph - N/A   Overcast
11:55 PM 48.9 °F 42.8 °F 79% 29.84 in 10.0 mi WSW 3.5 mph - N/A   Overcast